Weather in Dalyr

Russia / Sakha (Yakutia) Republic     63°52′06″N   120°15′04″E
temp.,
°C
wind,
m/s
gust,
m/s
humid.,
%
clouds,
%
prec.,
mm/h
press.,
hPa
HPBL,
m
2 august, mon
mon200:00+18nne125049 0.0 101411
03:00+17nne235588 0.0 101343
06:00+17ne2771100 0.0 1012134
09:00+24ne3654100 0.0 1011413
12:00+29ene463327 0.0 10091174
15:00+30e692196 0.0 10081900
18:00+27e4929100 0.0 1007652
21:00+21ene3849100 0.0 1008139
3 august, tue
tue300:00+18ne3104644 0.0 1008175
03:00+16ene311450 0.0 1008188
06:00+15ene39560 0.0 1008176
09:00+22e38440 0.0 1008462
12:00+27e59340 0.0 10081501
15:00+29e59310 0.0 10072589
18:00+27se474255 0.0 10071714
21:00+21ese11687 0.0 100820
4 august, wed
wed400:00+18ne227228 0.0 100929
03:00+16ene3882100 0.0 1009145
06:00+17ene3107668 0.0 1009255
09:00+22e5105269 0.0 1009872
12:00+25e5844100 0.0 10081438
15:00+26ese3643100 0.0 10071756
18:00+26e3739100 0.0 10072168
21:00+20ene2257100 0.0 100843
5 august, thu
thu500:00+17ene117470 0.0 100812
03:00+15ene227993 0.0 100819
06:00+16ne2367100 0.0 100868
09:00+24ene12434 0.0 1007363
12:00+28nne24320 0.0 10061471
15:00+30ne35240 0.0 10052312
18:00+29ne46220 0.0 10051835
21:00+20nne310410 0.0 1006186
6 august, fri
fri600:00+17ne39414 0.0 1006165
03:00+14ne38444 0.0 1007138
06:00+13ne29535 0.0 1007161
09:00+20ne35310 0.0 1007419
12:00+25nne24240 0.0 10071164
15:00+27n34262 0.0 10052253
18:00+25n44355 0.0 10052240
21:00+19n310415 0.0 1006309